TimeCEST,TemperatureF,Dew PointF,Humidity,Sea Level PressureIn,VisibilityMPH,Wind Direction,Wind SpeedMPH,Gust SpeedMPH,PrecipitationIn,Events,Conditions,WindDirDegrees,DateUTC
12:00 AM,75.2,66.2,73,30.12,-9999.0,Variable,2.3,-,N/A,,Clear,0,2013-07-16 22:00:00
12:30 AM,75.2,66.2,73,30.12,-9999.0,ENE,2.3,-,N/A,,Clear,70,2013-07-16 22:30:00
1:00 AM,75.2,66.2,73,30.12,-9999.0,Calm,Calm,-,N/A,,Clear,0,2013-07-16 23:00:00
1:30 AM,73.4,64.4,73,30.12,-9999.0,North,1.2,-,N/A,,Clear,10,2013-07-16 23:30:00
2:00 AM,74,64,62,30.13,12,ESE,5.8,,,,,110,2013-07-17 00:00:00
2:00 AM,75.2,64.4,69,30.12,-9999.0,East,3.5,-,N/A,,Clear,100,2013-07-17 00:00:00
2:30 AM,71.6,64.4,78,30.12,-9999.0,Variable,2.3,-,N/A,,Clear,0,2013-07-17 00:30:00
3:00 AM,73.4,62.6,69,30.09,-9999.0,Calm,Calm,-,N/A,,Clear,0,2013-07-17 01:00:00
3:30 AM,69.8,62.6,78,30.09,-9999.0,North,1.2,-,N/A,,Clear,360,2013-07-17 01:30:00
4:00 AM,71.6,64.4,78,30.09,-9999.0,Calm,Calm,-,N/A,,Clear,0,2013-07-17 02:00:00
4:30 AM,69.8,62.6,78,30.09,-9999.0,Calm,Calm,-,N/A,,Clear,0,2013-07-17 02:30:00
5:00 AM,68,61,71,30.09,12,Calm,Calm,,,,,,2013-07-17 03:00:00
5:00 AM,69.8,62.6,78,30.09,-9999.0,NE,2.3,-,N/A,,Clear,40,2013-07-17 03:00:00
5:30 AM,69.8,62.6,78,30.09,-9999.0,North,3.5,-,N/A,,Clear,10,2013-07-17 03:30:00
6:00 AM,68.0,60.8,78,30.09,6.2,NNE,4.6,-,N/A,,Partly Cloudy,20,2013-07-17 04:00:00
6:30 AM,69.8,62.6,78,30.09,6.2,Calm,Calm,-,N/A,,Partly Cloudy,0,2013-07-17 04:30:00
7:00 AM,69.8,62.6,78,30.09,6.2,Calm,Calm,-,N/A,,Partly Cloudy,0,2013-07-17 05:00:00
7:30 AM,71.6,62.6,73,30.09,-9999.0,Calm,Calm,-,N/A,,Clear,0,2013-07-17 05:30:00
8:00 AM,73,63,64,30.12,16,NNE,1.2,,,,,30,2013-07-17 06:00:00
8:00 AM,73.4,64.4,73,30.09,-9999.0,North,3.5,-,N/A,,Clear,10,2013-07-17 06:00:00
8:30 AM,77.0,64.4,65,30.12,-9999.0,North,3.5,-,N/A,,Clear,360,2013-07-17 06:30:00
9:00 AM,80.6,64.4,58,30.12,-9999.0,Variable,2.3,-,N/A,,Clear,0,2013-07-17 07:00:00
9:30 AM,84.2,60.8,45,30.12,-9999.0,Variable,1.2,-,N/A,,Clear,0,2013-07-17 07:30:00
10:00 AM,86.0,60.8,43,30.12,-9999.0,Variable,1.2,-,N/A,,Clear,0,2013-07-17 08:00:00
10:30 AM,87.8,62.6,43,30.12,-9999.0,North,1.2,-,N/A,,Clear,350,2013-07-17 08:30:00
11:00 AM,89,61,29,30.12,19,WNW,2.3,,,,Scattered Clouds,300,2013-07-17 09:00:00
11:00 AM,89.6,60.8,38,30.12,-9999.0,Calm,Calm,-,N/A,,Clear,0,2013-07-17 09:00:00
11:30 AM,91.4,59.0,34,30.12,-9999.0,Calm,Calm,-,N/A,,Clear,0,2013-07-17 09:30:00
12:00 PM,89.6,60.8,38,30.09,-9999.0,SSW,3.5,-,N/A,,Clear,210,2013-07-17 10:00:00
12:30 PM,89.6,64.4,43,30.12,-9999.0,SW,12.7,-,N/A,,Clear,230,2013-07-17 10:30:00
1:00 PM,89.6,64.4,43,30.12,-9999.0,SW,12.7,-,N/A,,Clear,220,2013-07-17 11:00:00
1:30 PM,87.8,66.2,49,30.12,-9999.0,SSW,12.7,-,N/A,,Clear,210,2013-07-17 11:30:00
2:00 PM,89,64,33,30.12,19,NNE,29.1,,,,Scattered Clouds,20,2013-07-17 12:00:00
2:00 PM,89.6,62.6,40,30.12,6.2,SW,12.7,-,N/A,,Partly Cloudy,220,2013-07-17 12:00:00
2:30 PM,87.8,62.6,43,30.09,6.2,SW,12.7,-,N/A,,Partly Cloudy,220,2013-07-17 12:30:00
3:00 PM,87.8,64.4,46,30.09,6.2,SW,13.8,-,N/A,,Partly Cloudy,220,2013-07-17 13:00:00
3:30 PM,89.6,64.4,43,30.09,6.2,SW,11.5,-,N/A,,Partly Cloudy,220,2013-07-17 13:30:00
4:00 PM,89.6,64.4,43,30.09,6.2,SSW,13.8,-,N/A,,Partly Cloudy,210,2013-07-17 14:00:00
4:30 PM,87.8,66.2,49,30.09,6.2,SW,12.7,-,N/A,,Partly Cloudy,220,2013-07-17 14:30:00
5:00 PM,87.8,62.6,43,30.09,6.2,SW,12.7,-,N/A,,Partly Cloudy,220,2013-07-17 15:00:00
5:30 PM,87.8,62.6,43,30.06,6.2,SW,11.5,-,N/A,,Partly Cloudy,230,2013-07-17 15:30:00
6:00 PM,87.8,62.6,43,30.06,6.2,SW,11.5,-,N/A,,Partly Cloudy,220,2013-07-17 16:00:00
6:30 PM,86.0,62.6,45,30.06,-9999.0,SW,10.4,-,N/A,,Clear,230,2013-07-17 16:30:00
7:00 PM,86.0,64.4,48,30.06,-9999.0,SW,10.4,-,N/A,,Clear,220,2013-07-17 17:00:00
7:30 PM,86.0,68.0,55,30.06,-9999.0,SW,10.4,-,N/A,,Clear,230,2013-07-17 17:30:00
8:00 PM,85,66,43,30.08,19,SSW,10.4,,,,Scattered Clouds,210,2013-07-17 18:00:00
8:00 PM,84.2,66.2,55,30.06,-9999.0,SW,6.9,-,N/A,,Clear,220,2013-07-17 18:00:00
8:30 PM,84.2,66.2,55,30.06,-9999.0,SW,5.8,-,N/A,,Clear,220,2013-07-17 18:30:00
9:00 PM,84.2,66.2,55,30.06,-9999.0,South,2.3,-,N/A,,Clear,190,2013-07-17 19:00:00
9:30 PM,82.4,66.2,58,30.06,-9999.0,Calm,Calm,-,N/A,,Clear,0,2013-07-17 19:30:00
10:00 PM,78.8,68.0,69,30.09,-9999.0,Variable,2.3,-,N/A,,Clear,0,2013-07-17 20:00:00
10:30 PM,78.8,66.2,65,30.09,-9999.0,Calm,Calm,-,N/A,,Clear,0,2013-07-17 20:30:00
11:00 PM,77.0,66.2,69,30.09,-9999.0,ENE,4.6,-,N/A,,Clear,60,2013-07-17 21:00:00
11:30 PM,77.0,66.2,69,30.09,-9999.0,ENE,3.5,-,N/A,,Clear,70,2013-07-17 21:30:00